Tracking 30970 objects as of 3-Jul-2025
HD Live streaming from Space Station
objects crossing your sky now

STARLINK-32287

Track STARLINK-32287 now!
10-day predictions
STARLINK-32287 is classified as:


NORAD ID: 60358
Int'l Code: 2024-138D
Perigee: 481.6 km
Apogee: 483.1 km
Inclination: 53.2 °
Period: 94.1 minutes
Semi major axis: 6853 km
RCS: Unknown
Launch date: August 4, 2024
Source: United States (US)
Launch site: AIR FORCE WESTERN TEST RANGE (AFWTR)
Your satellite tracking list
COSMOS 2569 (GLONASS)
Track 1 satellite(s)




NASA's NSSDC Master Catalog

Two Line Element Set (TLE):
1 60358U 24138D   25183.86302084 -.00000363  00000-0 -12211-6 0  9997
2 60358  53.1607  30.3403 0001141  76.7277 283.3851 15.30196624 52376
Source of the keplerian elements: AFSPC